Weather History for K04V - December, 2013

Change the Weather History Date:

Monday, December 30, 2013

  Actual Average (KALS) Record (KALS)
Temperature  
Mean Temperature 6 °F 16 °F  
Max Temperature 14 °F 34 °F 56 °F (1945)
Min Temperature -2 °F -2 °F -28 °F (2007)
Degree Days  
Heating Degree Days 59 49  
Month to date heating degree days 1413  
Since 1 July heating degree days 3588  
Cooling Degree Days 0 0  
Month to date cooling degree days 0  
Year to date cooling degree days 51  
Moisture  
Dew Point 1 °F    
Average Humidity 84    
Maximum Humidity 92    
Minimum Humidity 73    
Precipitation  
Precipitation 0.00 in 0.01 in 0.25 in (1951)
Month to date precipitation 0.34  
Year to date precipitation 7.30  
Snow  
Snow 0.00 in 0.10 in 12.00 in (1973)
Month to date snowfall 4.4  
Since 1 July snowfall 10.2  
Snow Depth -    
Sea Level Pressure  
Sea Level Pressure 30.27 in    
Wind  
Wind Speed 2 mph (NNE)    
Max Wind Speed 14 mph    
Max Gust Speed -    
Visibility 7 miles    
Events Fog , Snow    
T = Trace of Precipitation, MM = Missing Value Source: NWS Daily Summary

Daily Weather History Graph

Daily Weather History Graph

Search for Another Location

Airport or City:

Trip Planner

Search our weather history database for the weather conditions in past years. The results will help you decide how hot, cold, wet, or windy it might be!

Date:

Astronomy

Dec. 30, 2013 Rise Set
Actual Time 7:20 AM MST 4:54 PM MST
Civil Twilight 6:51 AM MST 5:23 PM MST
Nautical Twilight 6:18 AM MST 5:56 PM MST
Astronomical Twilight 5:46 AM MST 6:28 PM MST
Moon 5:14 AM MST (12/30) 3:29 PM MST (12/30)
Length of Visible Light 10h 32m
Length of Day
9h 33m
Waning Crescent, 4% of the Moon is Illuminated
Dec 30
Waning Crescent
Jan 1
New
Jan 7
First Quarter
Jan 15
Full
Jan 23
Last Quarter

Hourly Weather History & Observations

Time (MST) Temp. Windchill Dew Point Humidity Pressure Visibility Wind Dir Wind Speed Gust Speed Precip Events Conditions
12:12 AM 5.0 °F - 3.2 °F 92% 30.16 in 10.0 mi Calm Calm - N/A   Clear
12:32 AM 6.8 °F -2.0 °F 3.2 °F 85% 30.15 in 10.0 mi North 4.6 mph - N/A   Clear
12:52 AM 8.6 °F 2.0 °F 5.0 °F 85% 30.15 in 10.0 mi SE 3.5 mph - N/A   Clear
1:12 AM 3.2 °F - -0.4 °F 85% 30.15 in 10.0 mi Calm Calm - N/A   Clear
1:32 AM 3.2 °F - -0.4 °F 85% 30.15 in 10.0 mi Calm Calm - N/A   Clear
1:52 AM 5.0 °F -4.1 °F 1.4 °F 85% 30.15 in 10.0 mi NNW 4.6 mph - N/A   Clear
2:12 AM 3.2 °F - -2.2 °F 78% 30.16 in 10.0 mi Calm Calm - N/A   Clear
2:32 AM 1.4 °F - -2.2 °F 85% 30.17 in 10.0 mi Calm Calm - N/A   Clear
2:52 AM 5.0 °F - 1.4 °F 85% 30.17 in 10.0 mi Calm Calm - N/A   Clear
3:12 AM 3.2 °F - -0.4 °F 85% 30.17 in 10.0 mi Calm Calm - N/A   Clear
3:32 AM -2.2 °F -12.5 °F -5.8 °F 85% 30.18 in 0.8 mi SE 4.6 mph - N/A   Mostly Cloudy
3:52 AM -0.4 °F -13.4 °F -2.2 °F 92% 30.18 in 0.2 mi East 6.9 mph - N/A Snow Light Snow
4:12 AM 3.2 °F -6.2 °F 1.4 °F 92% 30.18 in 0.5 mi East 4.6 mph - N/A Fog Light Freezing Fog
4:32 AM - - - N/A% 30.18 in 0.2 mi Calm Calm - N/A   Unknown
4:51 AM - - - N/A% 30.17 in 0.2 mi Calm Calm - N/A   Unknown
5:12 AM 1.4 °F -8.3 °F -2.2 °F 85% 30.19 in 0.5 mi West 4.6 mph - N/A Fog Light Freezing Fog
5:32 AM 1.4 °F - -2.2 °F 85% 30.19 in 0.2 mi Calm Calm - N/A Fog Light Freezing Fog
5:52 AM - - - N/A% 30.21 in 0.5 mi Calm Calm - N/A Fog Fog
6:12 AM -0.4 °F - -4.0 °F 85% 30.21 in 2.0 mi Calm Calm - N/A   Overcast
6:32 AM - - - N/A% 30.23 in 0.5 mi Calm Calm - N/A Fog Fog
6:52 AM - - - N/A% 30.24 in 0.2 mi Calm Calm - N/A Fog Fog
7:12 AM - - - N/A% 30.24 in 0.5 mi Calm Calm - N/A Fog Fog
7:32 AM - - - N/A% 30.25 in 0.2 mi Calm Calm - N/A Fog Fog
7:52 AM - - - N/A% 30.26 in 0.2 mi Calm Calm - N/A Fog Fog
8:12 AM - - - N/A% 30.27 in 0.2 mi Calm Calm - N/A Fog Fog
8:32 AM - - - N/A% 30.28 in 0.2 mi Calm Calm - N/A Fog Fog
8:52 AM - - - N/A% 30.29 in 2.0 mi Calm Calm - N/A   Overcast
9:12 AM - - - N/A% 30.30 in 0.2 mi Calm Calm - N/A Fog Fog
9:32 AM - - - N/A% 30.31 in 10.0 mi Calm Calm - N/A   Overcast
9:52 AM - - - N/A% 30.31 in 5.0 mi Calm Calm - N/A   Haze
10:11 AM - - - N/A% 30.31 in 10.0 mi Calm Calm - N/A   Clear
10:32 AM - - - N/A% 30.31 in 5.0 mi Calm Calm - N/A   Unknown
10:52 AM - - - N/A% 30.31 in 5.0 mi Calm Calm - N/A   Unknown
11:12 AM - - - N/A% 30.31 in 0.5 mi Calm Calm - N/A   Unknown
11:32 AM - - - N/A% 30.30 in 5.0 mi Calm Calm - N/A   Haze
11:51 AM - - - N/A% 30.29 in 5.0 mi Calm Calm - N/A   Haze
12:12 PM - - - N/A% 30.29 in 10.0 mi Calm Calm - N/A   Clear
12:32 PM - - - N/A% 30.29 in 7.0 mi SSE 4.6 mph - N/A   Unknown
12:52 PM - - - N/A% 30.28 in 2.5 mi SSE 3.5 mph - N/A   Unknown
1:11 PM - - - N/A% 30.29 in 5.0 mi ESE 3.5 mph - N/A   Unknown
1:32 PM 14.0 °F 6.5 °F 8.6 °F 79% 30.28 in 5.0 mi SE 4.6 mph - N/A Snow Light Snow
1:51 PM 14.0 °F - 6.8 °F 73% 30.28 in 7.0 mi Calm Calm - N/A Snow Light Snow
2:12 PM 14.0 °F 8.2 °F 6.8 °F 73% 30.28 in 10.0 mi SE 3.5 mph - N/A   Clear
2:32 PM 14.0 °F 8.2 °F 6.8 °F 73% 30.28 in 10.0 mi ESE 3.5 mph - N/A   Clear
2:52 PM 14.0 °F - 6.8 °F 73% 30.29 in 10.0 mi Calm Calm - N/A   Clear
3:12 PM 14.0 °F - 6.8 °F 73% 30.29 in 10.0 mi Calm Calm - N/A   Clear
3:32 PM 12.2 °F - 6.8 °F 79% 30.29 in 10.0 mi Calm Calm - N/A   Clear
3:51 PM 12.2 °F - 6.8 °F 79% 30.30 in 10.0 mi Calm Calm - N/A   Clear
4:12 PM 10.4 °F - 5.0 °F 79% 30.30 in 10.0 mi Calm Calm - N/A   Clear
4:32 PM 10.4 °F - 5.0 °F 79% 30.30 in 10.0 mi Calm Calm - N/A   Clear
4:52 PM 6.8 °F -0.1 °F 3.2 °F 85% 30.31 in 10.0 mi North 3.5 mph - N/A   Clear
5:12 PM 3.2 °F -7.8 °F 1.4 °F 92% 30.31 in 10.0 mi NNW 5.8 mph - N/A   Clear
5:32 PM 5.0 °F -5.6 °F 1.4 °F 85% 30.31 in 10.0 mi NNW 5.8 mph - N/A   Clear
5:52 PM 5.0 °F -8.1 °F 1.4 °F 85% 30.31 in 10.0 mi NNW 8.1 mph - N/A   Clear
6:11 PM 3.2 °F -4.2 °F -0.4 °F 85% 30.31 in 10.0 mi North 3.5 mph - N/A   Clear
6:32 PM 1.4 °F - -4.0 °F 78% 30.31 in 10.0 mi Calm Calm - N/A   Clear
6:52 PM 3.2 °F - 1.4 °F 92% 30.31 in 10.0 mi Calm Calm - N/A   Clear
7:12 PM 1.4 °F -6.2 °F -0.4 °F 92% 30.33 in 10.0 mi ESE 3.5 mph - N/A   Clear
7:32 PM 3.2 °F - 1.4 °F 92% 30.33 in 10.0 mi Calm Calm - N/A   Clear
7:52 PM 1.4 °F - -4.0 °F 78% 30.34 in 10.0 mi Calm Calm - N/A   Clear
8:12 PM 3.2 °F - 1.4 °F 92% 30.34 in 10.0 mi Calm Calm - N/A   Clear
8:32 PM 3.2 °F - -0.4 °F 85% 30.34 in 10.0 mi Calm Calm - N/A   Clear
8:52 PM -0.4 °F -12.0 °F -2.2 °F 92% 30.35 in 10.0 mi NW 5.8 mph - N/A   Clear
9:12 PM 1.4 °F -9.9 °F -2.2 °F 85% 30.35 in 10.0 mi NNW 5.8 mph - N/A   Clear
9:32 PM 3.2 °F -6.2 °F 1.4 °F 92% 30.34 in 10.0 mi NNW 4.6 mph - N/A   Clear
9:52 PM 3.2 °F -7.8 °F -0.4 °F 85% 30.34 in 10.0 mi NW 5.8 mph - N/A   Clear
10:11 PM 5.0 °F -9.1 °F -0.4 °F 78% 30.34 in 10.0 mi NW 9.2 mph - N/A   Clear
10:32 PM 1.4 °F -9.9 °F -2.2 °F 85% 30.33 in 10.0 mi North 5.8 mph - N/A   Clear
10:52 PM 8.6 °F - 5.0 °F 85% 30.33 in 10.0 mi Calm Calm - N/A   Clear
11:12 PM 6.8 °F - 3.2 °F 85% 30.33 in 10.0 mi Calm Calm - N/A   Clear
11:32 PM 3.2 °F -4.2 °F -2.2 °F 78% 30.32 in 10.0 mi NNW 3.5 mph - N/A   Clear
11:52 PM 8.6 °F -7.7 °F 3.2 °F 79% 30.31 in 10.0 mi NW 13.8 mph - N/A   Clear